Location: ??????
(55.2000°N, 38.3000°E)
Time: 08:44:04
(UTC+00:00)

COSMOS 2428 - Pass Details

Date: 15 November 2025
Orbit: 847 x 852 km, 70.9° (Epoch: 14 December)

Event Time Altitude Azimuth Distance (km) Brightness Sun altitude
Exits shadow 01:39:04 68° 358° (N) 917 2.8 -28.2°
Drops below altitude 10° 01:44:09 10° 32° (NNE) 2,483 5.6 -27.5°
Sets 01:46:37 0° 35° (NE) 3,422 6.4 -27.1°
